Location: Brabourne
(51.1333°N, 1.0000°E)
Time: 01:05:08
(UTC+00:00)

Cosmos 1242 Rocket - Visible Passes

Search period start: 24 October 2021 00:00
Search period end: 03 November 2021 00:00
Orbit: 445 x 481 km, 81.2° (Epoch: 23 October)

Date Brightness Start Highest point End Pass type
(mag) Time Alt. Az. Time Alt. Az. Time Alt. Az.
24 Oct 5.4 05:52:55 10° NNE 05:55:36 19° ENE 05:58:17 10° ESE visible
25 Oct 5.7 05:22:32 10° NE 05:24:01 12° ENE 05:25:28 10° E visible
27 Oct 4.4 05:53:09 10° N 05:56:32 34° ENE 05:59:52 10° SE visible
28 Oct 5.3 05:22:11 10° NNE 05:25:00 21° ENE 05:27:48 10° ESE visible
29 Oct 5.7 04:51:38 10° NNE 04:53:24 13° ENE 04:55:09 10° E visible
30 Oct 3.0 05:53:39 10° N 05:57:18 67° ENE 06:00:54 10° SSE visible
31 Oct 4.2 05:22:26 10° N 05:25:52 37° ENE 05:29:14 10° SE visible
01 Nov 5.1 04:51:25 10° NNE 04:54:21 22° ENE 04:57:14 10° ESE visible
02 Nov 5.7 04:20:45 10° NNE 04:22:44 14° ENE 04:24:43 10° E visible
02 Nov 2.6 05:54:19 10° NNW 05:57:55 59° W 06:01:28 10° S visible
